Tracking 23611 objects as of 18-Sep-2021
HD Live streaming from Space Station
objects crossing your sky now
Track INSPIRATION-4

EXPRESS 2

Track EXPRESS 2 now!
EXPRESS 2 is classified as:


NORAD ID: 24435
Int'l Code: 1996-058A
Perigee: 35,738.5 km
Apogee: 35,813.5 km
Inclination: 14.7 °
Period: 1,435.2 minutes
Semi major axis: 42146 km
RCS: 10 m2 (large)
Launch date: September 26, 1996
Source: Commonwealth of Independent States (former USSR) (CIS)
Launch site: TYURATAM MISSILE AND SPACE COMPLEX (TTMTR)
aabbcc
Your satellite tracking list
Your tracking list is empty




NASA's NSSDC Master Catalog

Two Line Element Set (TLE):
1 24435U 96058A   21260.91630370 -.00000156  00000-0  00000-0 0  9999
2 24435  14.6887   7.8479 0008900 358.4238  37.4208  1.00335084 91434
Source of the keplerian elements: AFSPC